Regional Weather Roundup
Issued by NWS Glasgow, MT

Home | Current Version | Previous Version | Text Only | Print | Product List | Glossary On
Versions: 1 2 3 4 5 6 7 8 9 10 11 12 13 14 15 16 17 18 19 20 21 22 23 24 25 26 27
000
ASUS45 KGGW 181815
RWRGGW
HOURLY REGIONAL WEATHER ROUNDUP FOR NORTHEAST MONTANA
NATIONAL WEATHER SERVICE GLASGOW MONTANA
1200 PM MDT FRI AUG 18 2017

NOTE: "FAIR" INDICATES FEW OR NO CLOUDS BELOW 12,000 FEET WITH NO
SIGNIFICANT WEATHER AND/OR OBSTRUCTIONS TO VISISBILITY.

NORTHEAST MONTANA


CITY           SKY/WX    TMP DP  RH WIND       PRES   REMARKS
GLASGOW        SUNNY     81  43  26 W3        29.94F
6HR MIN TEMP:  54; 6HR MAX TEMP:  81;

PLENTYWOOD       N/A     79  43  27 SW3         N/A
WOLF POINT     SUNNY     83  46  27 VRB5      29.94F
JORDAN           N/A    N/A N/A N/A MISG      29.96F
WINNETT          N/A     84  33  16 E1          N/A
SIDNEY         SUNNY     78  54  43 E3        29.97F
GLENDIVE       SUNNY     82  48  30 S12G17    29.98F
MALTA            N/A     86  49  27 E3          N/A
SCOBEY           N/A     78  47  33 S9        29.95F

FORT PECK REPORTS


CITY           SKY/WX    TMP DP  RH WIND       PRES   REMARKS
FORT PECK        N/A     78  51  38 S7          N/A
THE PINES        N/A     81  38  21 S3          N/A

SOUTHEAST MONTANA


CITY           SKY/WX    TMP DP  RH WIND       PRES   REMARKS
BILLINGS       SUNNY     78  41  26 SW9       30.05F
MILES CITY     SUNNY     82  40  22 CALM      29.99F
BAKER          SUNNY     81  43  26 MISG      30.03F
LIVINGSTON     SUNNY     79  41  25 NW6       30.10F

CENTRAL MONTANA


CITY           SKY/WX    TMP DP  RH WIND       PRES   REMARKS
HAVRE          SUNNY     84  39  20 SW15      29.93F
LEWISTOWN      SUNNY     78  37  22 NW6       30.04F
GREAT FALLS    SUNNY     81  32  17 SW14G22   30.01F
CUT BANK       SUNNY     81  35  19 W8        29.98F
HELENA         SUNNY     82  29  14 W16G22    30.07F
BUTTE          SUNNY     74  31  20 VRB5      30.19F
BOZEMAN        SUNNY     77  41  27 NE5       30.13F HAZE

WESTERN MONTANA


CITY           SKY/WX    TMP DP  RH WIND       PRES   REMARKS
MISSOULA       SUNNY     72  41  32 SE5       30.09F HAZE
KALISPELL      NOT AVBL

NORTH DAKOTA


CITY           SKY/WX    TMP DP  RH WIND       PRES   REMARKS
WILLISTON      SUNNY     79  52  38 VRB3      29.96F
DICKINSON      SUNNY     79  50  36 NW5       29.99F
MINOT          SUNNY     79  50  36 W14G20    29.92F
BISMARCK       SUNNY     76  56  49 W7        29.97R

SOUTHERN SASKATCHEWAN


CITY           SKY/WX    TMP DP  RH WIND       PRES   REMARKS
REGINA         MOSUNNY   77  45  31 W13       29.91F
MOOSE JAW      PTSUNNY   79  48  34 W7        29.93F
ESTEVAN        MOSUNNY   77  48  36 NW13      29.94F
SWIFT CURRENT  SUNNY     79  46  31 S9        29.91F





USA.gov is the U.S. government's official web portal to all federal, state and local government web resources and services.